User: anonymous   Login
Location: Unspecified
(0.0000°N, 0.0000°E)
Time: 04:47:23
(UTC+02:00)
Language:

Centaur D-1AR AC-41 - Orbit

View from above orbital plane
View from above orbital plane
View from above satellite
View from above satellite

Ground track
Ground track

The orbit data is extracted from the following two-line orbital elements,

1 10976U 78068B   14296.42048387  .00000038  00000-0  75805-3 0  5029
2 10976 021.3368 177.4847 7165982 023.6516 357.3486 02.22293219294729
Epoch (UTC): 23 October 2014 10:05:29
Eccentricity: 0.7165982
inclination: 21.3368°
perigee height: 650 km
apogee height: 36193 km
right ascension of ascending node: 177.4847°
argument of perigee: 23.6516°
revolutions per day: 2.22293219
mean anomaly at epoch: 357.3486°
orbit number at epoch: 29472

The dashed part of the orbit path shows where the satellite is in the earth's shadow,  

DLR